Time,TemperatureF,DewpointF,PressureIn,WindDirection,WindDirectionDegrees,WindSpeedMPH,WindSpeedGustMPH,Humidity,HourlyPrecipIn,Conditions,Clouds,dailyrainin,SoftwareType,DateUTC
2013-03-18 00:12:00,67.0,64.0,-100.00,SSW,193,5.0,8.0,91,0.00,,,0.00,,2013-03-18 05:12:00,
2013-03-18 00:22:00,67.0,64.0,-100.00,SSW,193,5.0,8.0,91,0.00,,,0.00,,2013-03-18 05:22:00,
2013-03-18 00:32:00,67.0,64.0,-100.00,SSW,193,5.0,8.0,91,0.00,,,0.00,,2013-03-18 05:32:00,
2013-03-18 00:43:00,67.0,64.0,-100.00,SSW,193,5.0,8.0,91,0.00,,,0.00,,2013-03-18 05:43:00,
2013-03-18 01:12:00,68.0,65.0,-100.00,SSW,200,7.0,11.0,91,0.00,,,0.00,,2013-03-18 06:12:00,
2013-03-18 01:22:00,68.0,65.0,-100.00,SSW,200,7.0,11.0,91,0.00,,,0.00,,2013-03-18 06:22:00,
2013-03-18 01:32:00,68.0,65.0,-100.00,SSW,200,7.0,11.0,91,0.00,,,0.00,,2013-03-18 06:32:00,
2013-03-18 01:42:00,68.0,65.0,-100.00,SSW,200,7.0,11.0,91,0.00,,,0.00,,2013-03-18 06:42:00,
2013-03-18 02:12:00,67.0,65.0,-100.00,SSW,194,6.0,9.0,93,0.00,,,0.00,,2013-03-18 07:12:00,
2013-03-18 02:22:00,67.0,65.0,-100.00,SSW,194,6.0,9.0,93,0.00,,,0.00,,2013-03-18 07:22:00,
2013-03-18 02:32:00,67.0,65.0,-100.00,SSW,194,6.0,9.0,93,0.00,,,0.00,,2013-03-18 07:32:00,
2013-03-18 02:42:00,67.0,65.0,-100.00,SSW,194,6.0,9.0,93,0.00,,,0.00,,2013-03-18 07:42:00,
2013-03-18 03:12:00,67.0,66.0,-100.00,South,179,6.0,11.0,95,0.00,,,0.00,,2013-03-18 08:12:00,
2013-03-18 03:22:00,67.0,66.0,-100.00,South,179,6.0,11.0,95,0.00,,,0.00,,2013-03-18 08:22:00,
2013-03-18 03:32:00,67.0,66.0,-100.00,South,179,6.0,11.0,95,0.00,,,0.00,,2013-03-18 08:32:00,
2013-03-18 03:43:00,67.0,66.0,-100.00,South,179,6.0,11.0,95,0.00,,,0.00,,2013-03-18 08:43:00,
2013-03-18 04:12:00,67.0,65.0,-100.00,SSW,195,7.0,11.0,93,0.00,,,0.00,,2013-03-18 09:12:00,
2013-03-18 04:22:00,67.0,65.0,-100.00,SSW,195,7.0,11.0,93,0.00,,,0.00,,2013-03-18 09:22:00,
2013-03-18 04:33:00,67.0,65.0,-100.00,SSW,195,7.0,11.0,93,0.00,,,0.00,,2013-03-18 09:33:00,
2013-03-18 04:43:00,67.0,65.0,-100.00,SSW,195,7.0,11.0,93,0.00,,,0.00,,2013-03-18 09:43:00,
2013-03-18 05:12:00,67.0,65.0,-100.00,SSW,201,6.0,11.0,92,0.00,,,0.00,,2013-03-18 10:12:00,
2013-03-18 05:23:00,67.0,65.0,-100.00,SSW,201,6.0,11.0,92,0.00,,,0.00,,2013-03-18 10:23:00,
2013-03-18 05:33:00,67.0,65.0,-100.00,SSW,201,6.0,11.0,92,0.00,,,0.00,,2013-03-18 10:33:00,
2013-03-18 05:42:00,67.0,65.0,-100.00,SSW,201,6.0,11.0,92,0.00,,,0.00,,2013-03-18 10:42:00,
2013-03-18 06:13:00,67.0,65.0,-100.00,SW,235,4.0,7.0,92,0.00,,,0.00,,2013-03-18 11:13:00,
2013-03-18 06:22:00,67.0,65.0,-100.00,SW,235,4.0,7.0,92,0.00,,,0.00,,2013-03-18 11:22:00,
2013-03-18 06:32:00,67.0,65.0,-100.00,SW,235,4.0,7.0,92,0.00,,,0.00,,2013-03-18 11:32:00,
2013-03-18 06:42:00,67.0,65.0,-100.00,SW,235,4.0,7.0,92,0.00,,,0.00,,2013-03-18 11:42:00,
2013-03-18 07:12:00,67.0,65.0,-100.00,SSW,204,5.0,7.0,92,0.00,,,0.00,,2013-03-18 12:12:00,
2013-03-18 07:22:00,67.0,65.0,-100.00,SSW,204,5.0,7.0,92,0.00,,,0.00,,2013-03-18 12:22:00,
2013-03-18 07:32:00,67.0,65.0,-100.00,SSW,204,5.0,7.0,92,0.00,,,0.00,,2013-03-18 12:32:00,
2013-03-18 07:42:00,67.0,65.0,-100.00,SSW,204,5.0,7.0,92,0.00,,,0.00,,2013-03-18 12:42:00,
2013-03-18 08:12:00,67.0,65.0,-100.00,SSW,194,6.0,10.0,94,0.00,,,0.00,,2013-03-18 13:12:00,
2013-03-18 08:22:00,67.0,65.0,-100.00,SSW,194,6.0,10.0,94,0.00,,,0.00,,2013-03-18 13:22:00,
2013-03-18 08:33:00,67.0,65.0,-100.00,SSW,194,6.0,10.0,94,0.00,,,0.00,,2013-03-18 13:33:00,
2013-03-18 08:42:00,67.0,65.0,-100.00,SSW,194,6.0,10.0,94,0.00,,,0.00,,2013-03-18 13:42:00,
2013-03-18 09:12:00,68.0,65.0,-100.00,SSW,208,8.0,14.0,91,0.00,,,0.00,,2013-03-18 14:12:00,
2013-03-18 09:22:00,68.0,65.0,-100.00,SSW,208,8.0,14.0,91,0.00,,,0.00,,2013-03-18 14:22:00,
2013-03-18 09:32:00,68.0,65.0,-100.00,SSW,208,8.0,14.0,91,0.00,,,0.00,,2013-03-18 14:32:00,
2013-03-18 09:42:00,68.0,65.0,-100.00,SSW,208,8.0,14.0,91,0.00,,,0.00,,2013-03-18 14:42:00,
2013-03-18 10:12:00,71.0,66.0,-100.00,SSW,212,9.0,16.0,83,0.00,,,0.00,,2013-03-18 15:12:00,
2013-03-18 10:22:00,71.0,66.0,-100.00,SSW,212,9.0,16.0,83,0.00,,,0.00,,2013-03-18 15:22:00,
2013-03-18 10:33:00,71.0,66.0,-100.00,SSW,212,9.0,16.0,83,0.00,,,0.00,,2013-03-18 15:33:00,
2013-03-18 10:43:00,71.0,66.0,-100.00,SSW,212,9.0,16.0,83,0.00,,,0.00,,2013-03-18 15:43:00,
2013-03-18 11:12:00,72.0,64.0,-100.00,SW,227,8.0,15.0,77,0.00,,,0.00,,2013-03-18 16:12:00,
2013-03-18 11:22:00,72.0,64.0,-100.00,SW,227,8.0,15.0,77,0.00,,,0.00,,2013-03-18 16:22:00,
2013-03-18 11:32:00,72.0,64.0,-100.00,SW,227,8.0,15.0,77,0.00,,,0.00,,2013-03-18 16:32:00,
2013-03-18 11:42:00,72.0,64.0,-100.00,SW,227,8.0,15.0,77,0.00,,,0.00,,2013-03-18 16:42:00,
2013-03-18 12:12:00,76.0,65.0,-100.00,SW,227,11.0,18.0,70,0.00,,,0.00,,2013-03-18 17:12:00,
2013-03-18 12:22:00,76.0,65.0,-100.00,SW,227,11.0,18.0,70,0.00,,,0.00,,2013-03-18 17:22:00,
2013-03-18 12:32:00,76.0,65.0,-100.00,SW,227,11.0,18.0,70,0.00,,,0.00,,2013-03-18 17:32:00,
2013-03-18 12:42:00,76.0,65.0,-100.00,SW,227,11.0,18.0,70,0.00,,,0.00,,2013-03-18 17:42:00,
2013-03-18 13:12:00,79.0,65.0,-100.00,SW,218,11.0,17.0,62,0.00,,,0.00,,2013-03-18 18:12:00,
2013-03-18 13:22:00,79.0,65.0,-100.00,SW,218,11.0,17.0,62,0.00,,,0.00,,2013-03-18 18:22:00,
2013-03-18 13:32:00,79.0,65.0,-100.00,SW,218,11.0,17.0,62,0.00,,,0.00,,2013-03-18 18:32:00,
2013-03-18 13:42:00,79.0,65.0,-100.00,SW,218,11.0,17.0,62,0.00,,,0.00,,2013-03-18 18:42:00,
2013-03-18 14:12:00,82.0,64.0,-100.00,SW,217,10.0,18.0,54,0.00,,,0.00,,2013-03-18 19:12:00,
2013-03-18 14:22:00,82.0,64.0,-100.00,SW,217,10.0,18.0,54,0.00,,,0.00,,2013-03-18 19:22:00,
2013-03-18 14:33:00,82.0,64.0,-100.00,SW,217,10.0,18.0,54,0.00,,,0.00,,2013-03-18 19:33:00,
2013-03-18 14:42:00,82.0,64.0,-100.00,SW,217,10.0,18.0,54,0.00,,,0.00,,2013-03-18 19:42:00,
2013-03-18 15:12:00,84.0,63.0,-100.00,SW,227,5.0,13.0,50,0.00,,,0.00,,2013-03-18 20:12:00,
2013-03-18 15:23:00,84.0,63.0,-100.00,SW,227,5.0,13.0,50,0.00,,,0.00,,2013-03-18 20:23:00,
2013-03-18 15:33:00,84.0,63.0,-100.00,SW,227,5.0,13.0,50,0.00,,,0.00,,2013-03-18 20:33:00,
2013-03-18 15:42:00,84.0,63.0,-100.00,SW,227,5.0,13.0,50,0.00,,,0.00,,2013-03-18 20:42:00,
2013-03-18 16:12:00,85.0,62.0,-100.00,SW,222,8.0,16.0,47,0.00,,,0.00,,2013-03-18 21:12:00,
2013-03-18 16:22:00,85.0,62.0,-100.00,SW,222,8.0,16.0,47,0.00,,,0.00,,2013-03-18 21:22:00,
2013-03-18 16:32:00,85.0,62.0,-100.00,SW,222,8.0,16.0,47,0.00,,,0.00,,2013-03-18 21:32:00,
2013-03-18 16:42:00,85.0,62.0,-100.00,SW,222,8.0,16.0,47,0.00,,,0.00,,2013-03-18 21:42:00,
2013-03-18 17:13:00,86.0,63.0,-100.00,SW,235,7.0,11.0,46,0.00,,,0.00,,2013-03-18 22:13:00,
2013-03-18 17:23:00,86.0,63.0,-100.00,SW,235,7.0,11.0,46,0.00,,,0.00,,2013-03-18 22:23:00,
2013-03-18 17:33:00,86.0,63.0,-100.00,SW,235,7.0,11.0,46,0.00,,,0.00,,2013-03-18 22:33:00,
2013-03-18 17:42:00,86.0,63.0,-100.00,SW,235,7.0,11.0,46,0.00,,,0.00,,2013-03-18 22:42:00,
2013-03-18 18:12:00,85.0,64.0,-100.00,SW,235,4.0,8.0,49,0.00,,,0.00,,2013-03-18 23:12:00,
2013-03-18 18:22:00,85.0,64.0,-100.00,SW,235,4.0,8.0,49,0.00,,,0.00,,2013-03-18 23:22:00,
2013-03-18 18:32:00,85.0,64.0,-100.00,SW,235,4.0,8.0,49,0.00,,,0.00,,2013-03-18 23:32:00,
2013-03-18 18:42:00,85.0,64.0,-100.00,SW,235,4.0,8.0,49,0.00,,,0.00,,2013-03-18 23:42:00,
2013-03-18 19:12:00,82.0,64.0,-100.00,WSW,240,3.0,5.0,54,0.00,,,-99.99,,2013-03-19 00:12:00,
2013-03-18 19:22:00,82.0,64.0,-100.00,WSW,240,3.0,5.0,54,0.00,,,-99.99,,2013-03-19 00:22:00,
2013-03-18 19:32:00,82.0,64.0,-100.00,WSW,240,3.0,5.0,54,0.00,,,-99.99,,2013-03-19 00:32:00,
2013-03-18 19:42:00,82.0,64.0,-100.00,WSW,240,3.0,5.0,54,0.00,,,-99.99,,2013-03-19 00:42:00,
2013-03-18 20:12:00,78.0,65.0,-100.00,West,271,0.0,0.0,64,0.00,,,0.00,,2013-03-19 01:12:00,
2013-03-18 20:22:00,78.0,65.0,-100.00,West,271,0.0,0.0,64,0.00,,,0.00,,2013-03-19 01:22:00,
2013-03-18 20:32:00,78.0,65.0,-100.00,West,271,0.0,0.0,64,0.00,,,0.00,,2013-03-19 01:32:00,
2013-03-18 20:42:00,78.0,65.0,-100.00,West,271,0.0,0.0,64,0.00,,,0.00,,2013-03-19 01:42:00,
2013-03-18 21:12:00,76.0,61.0,-100.00,North,352,9.0,23.0,60,0.00,,,0.00,,2013-03-19 02:12:00,
2013-03-18 21:22:00,76.0,61.0,-100.00,North,352,9.0,23.0,60,0.00,,,0.00,,2013-03-19 02:22:00,
2013-03-18 21:32:00,76.0,61.0,-100.00,North,352,9.0,23.0,60,0.00,,,0.00,,2013-03-19 02:32:00,
2013-03-18 21:42:00,76.0,61.0,-100.00,North,352,9.0,23.0,60,0.00,,,0.00,,2013-03-19 02:42:00,
2013-03-18 22:12:00,73.0,61.0,-100.00,NE,36,7.0,15.0,66,0.00,,,0.00,,2013-03-19 03:12:00,
2013-03-18 22:22:00,73.0,61.0,-100.00,NE,36,7.0,15.0,66,0.00,,,0.00,,2013-03-19 03:22:00,
2013-03-18 22:33:00,73.0,61.0,-100.00,NE,36,7.0,15.0,66,0.00,,,0.00,,2013-03-19 03:33:00,
2013-03-18 22:43:00,73.0,61.0,-100.00,NE,36,7.0,15.0,66,0.00,,,0.00,,2013-03-19 03:43:00,
2013-03-18 23:13:00,69.0,56.0,-100.00,NNE,32,10.0,17.0,64,0.00,,,0.00,,2013-03-19 04:13:00,
2013-03-18 23:23:00,69.0,56.0,-100.00,NNE,32,10.0,17.0,64,0.00,,,0.00,,2013-03-19 04:23:00,
2013-03-18 23:33:00,69.0,56.0,-100.00,NNE,32,10.0,17.0,64,0.00,,,0.00,,2013-03-19 04:33:00,
2013-03-18 23:43:00,69.0,56.0,-100.00,NNE,32,10.0,17.0,64,0.00,,,0.00,,2013-03-19 04:43:00,